Wind_Speed
5 5 6 6 5 6 7 8 8 8 8 7 7 8 8 8 9 9 9 9 10 10 10 11 11 12 12 12 13 14 14 15 16 16 16 16 17 17 17 18 18 17 17
5 5 5 6 5 6 6 7 7 7 8 8 9 9 9 8 9 9 9 10 10 9 10 11 11 12 12 13 13 13 14 14 14 15 16 16 17 18 18 18 18 18 17
4 5 5 5 6 6 6 6 6 7 7 8 9 9 9 9 9 9 9 9 9 10 10 11 11 11 12 13 12 13 13 14 14 14 14 15 16 17 17 17 17 17 16
4 4 4 4 5 5 6 6 6 7 7 7 7 8 8 9 8 9 8 9 9 9 9 10 10 10 11 11 11 11 12 12 13 13 13 14 15 15 16 17 17 16 17
3 3 3 4 4 5 5 5 5 5 6 6 6 6 7 8 8 8 8 8 9 9 9 9 9 9 10 10 10 10 10 11 11 12 12 12 13 14 15 15 16 16 16
3 3 3 4 4 4 4 4 5 5 5 5 5 6 6 6 7 7 7 7 8 8 9 9 9 9 9 10 10 10 10 10 11 11 11 12 12 12 13 13 14 15 16
3 4 4 4 4 5 5 5 5 6 6 6 5 5 6 6 7 7 7 7 8 8 9 9 9 9 9 9 9 9 9 10 10 10 11 12 12 11 11 13 14 15 15
4 4 4 4 5 5 5 5 5 5 5 5 5 5 5 6 7 7 7 7 7 8 8 9 9 9 9 9 9 9 9 9 9 11 12 12 12 12 11 12 13 14 14
5 5 5 5 5 6 6 6 6 6 6 5 6 6 6 7 7 7 7 6 7 7 7 8 8 8 9 9 9 9 9 10 11 11 12 12 12 13 12 12 12 12 13
5 5 6 6 6 6 7 7 7 7 6 6 7 7 7 7 7 8 7 7 7 7 7 7 7 8 9 10 10 9 9 10 10 11 12 12 12 12 11 11 11 11 12
5 6 6 6 6 6 6 7 7 8 8 8 8 8 7 7 7 7 8 8 8 8 8 8 8 8 9 10 9 9 10 10 11 10 11 10 9 9 10 10 11 12 12
6 6 7 7 7 7 7 8 8 8 9 9 9 8 8 8 8 8 8 8 9 9 9 9 9 9 10 10 11 10 10 11 11 10 9 9 9 9 10 11 12 13 13
7 7 8 8 8 8 9 9 9 10 10 10 10 9 9 10 10 10 9 9 10 10 10 10 10 11 11 11 11 11 11 11 10 10 10 10 11 11 12 12 12 13 13
8 8 8 9 9 9 10 10 10 11 11 11 11 11 10 11 11 11 11 11 11 11 11 12 12 11 11 11 11 11 11 11 11 11 11 12 12 13 13 13 14 14 14
10 10 9 10 11 11 11 11 11 11 11 12 12 12 12 12 12 12 12 13 12 12 12 13 13 13 12 12 12 12 11 12 12 12 12 13 13 14 14 14 15 15 15
12 12 11 11 11 11 11 11 12 12 12 12 13 13 13 13 13 13 13 14 14 13 14 13 14 14 14 14 13 13 13 13 13 14 14 15 15 15 15 15 16 16 17
12 12 12 12 12 11 11 12 12 12 12 13 13 14 15 15 15 15 15 15 15 15 15 15 15 15 15 15 14 14 14 15 16 16 16 16 16 17 17 17 18 18 18
13 13 13 12 13 13 13 14 14 14 14 14 15 15 15 16 17 17 17 16 16 16 16 16 16 16 17 17 17 17 17 18 18 18 17 18 18 19 19 19 19 19 20
14 14 14 14 14 14 15 16 16 16 16 16 16 16 17 17 18 18 18 17 17 17 17 17 18 18 19 19 19 20 20 20 20 20 20 20 21 21 21 21 21 21 21
14 15 15 15 15 16 17 17 18 18 17 17 17 18 18 18 19 19 19 19 18 19 19 19 19 20 21 21 21 21 22 22 22 21 22 22 22 23 23 22 22 22 22
15 16 15 16 16 17 18 18 19 19 18 18 18 19 19 20 20 21 20 20 20 21 21 21 21 22 22 22 23 23 23 23 23 23 23 23 23 23 23 23 22 22 23
16 16 16 17 17 18 18 19 19 19 19 20 20 20 20 21 21 22 22 22 22 22 23 23 23 23 24 24 24 24 24 24 24 24 24 23 23 23 23 23 23 22 23
17 17 17 18 18 19 19 19 20 20 20 20 21 21 21 22 23 22 23 23 23 24 24 24 24 25 25 26 26 26 26 25 25 24 24 23 23 23 24 23 23 23 24
16 17 18 18 19 19 19 20 20 20 21 21 22 22 23 23 23 23 23 24 24 25 25 26 26 26 27 27 27 27 27 26 25 25 25 25 25 24 24 24 24 25 25
18 18 18 19 19 19 20 20 21 21 22 22 23 23 23 23 23 24 24 25 25 25 26 26 27 27 27 27 27 27 27 26 26 26 26 26 26 25 25 25 25 25 25
19 19 20 20 20 21 21 22 22 22 22 23 23 24 24 24 24 24 25 26 26 26 26 27 27 26 26 26 26 26 27 26 26 27 27 27 27 26 25 25 26 26 27
Wind_Direction
264 260 259 258 256 257 257 255 254 252 249 248 252 253 257 260 264 263 264 266 265 263 266 267 269 269 271 270 267 267 266 265 265 265 264 265 262 261 261 262 263 262 262
254 255 262 259 262 264 263 260 256 253 250 249 251 254 255 258 263 266 267 265 262 265 269 272 272 274 273 272 271 270 267 265 267 268 268 267 265 263 261 260 261 261 261
252 254 260 265 268 272 268 267 262 255 253 253 254 257 259 263 267 268 268 266 264 268 270 272 272 275 277 276 274 270 268 267 269 271 270 268 267 266 262 258 258 257 258
254 256 260 267 268 266 267 268 268 260 257 256 260 264 264 264 269 271 271 269 268 269 269 271 274 278 282 279 275 272 271 270 272 274 273 272 270 267 264 261 258 257 257
262 261 272 276 271 267 267 271 274 270 267 266 267 267 263 262 265 269 272 271 273 274 273 274 275 280 281 282 278 274 273 272 275 276 277 276 273 270 267 262 260 258 260
276 278 283 282 275 271 274 278 278 276 273 269 266 266 266 266 264 267 271 274 274 276 276 275 274 277 280 284 281 276 273 273 276 278 278 276 276 275 270 261 259 260 262
292 288 292 285 273 269 269 277 280 278 276 274 271 266 267 270 269 276 279 281 280 279 278 278 280 281 283 286 285 281 278 280 279 279 280 277 278 276 271 263 261 263 264
291 292 285 284 277 272 274 272 274 275 278 278 279 279 278 274 269 274 278 278 277 277 280 285 285 286 285 286 287 283 280 283 285 284 283 280 277 276 273 271 270 267 266
283 284 284 285 283 276 275 278 277 273 277 274 276 278 280 279 275 272 274 277 278 274 281 285 286 288 289 290 289 287 282 285 289 289 284 280 275 274 274 274 273 271 270
285 284 286 287 286 284 279 278 282 284 282 278 279 281 278 276 277 279 276 275 276 275 278 284 284 288 287 288 290 288 288 292 296 296 288 281 274 272 274 274 277 274 272
285 285 287 287 287 286 282 280 283 285 285 285 286 285 281 278 282 282 280 276 275 276 278 285 289 292 291 288 287 290 293 295 295 296 295 285 275 272 278 279 281 281 280
282 279 281 284 285 283 284 284 283 283 285 286 285 285 281 283 285 286 286 283 280 281 283 286 289 293 293 287 287 292 295 292 293 295 292 290 288 285 285 280 280 281 283
283 278 278 279 281 282 284 284 284 281 280 282 281 281 281 281 282 283 283 282 282 283 284 287 288 290 290 288 288 289 290 291 289 290 291 289 289 289 290 289 287 284 286
285 284 279 278 280 283 284 283 283 282 278 279 278 278 279 280 281 282 281 279 278 278 279 281 283 285 287 286 286 286 286 286 285 286 287 289 289 289 289 291 291 291 291
280 280 280 281 282 284 286 285 284 283 279 278 277 276 276 278 279 280 280 281 280 278 277 279 281 284 286 285 284 284 286 286 286 289 288 287 287 288 288 288 288 289 290
277 278 280 283 282 282 285 285 287 286 284 283 279 274 273 277 279 280 281 282 281 280 280 280 281 282 284 283 282 284 286 286 287 288 288 287 286 286 287 288 288 286 286
277 277 277 278 280 279 281 282 284 287 286 284 280 275 275 277 278 278 279 280 281 281 281 282 281 280 280 282 283 286 286 288 287 288 290 288 286 285 286 287 287 285 285
277 275 275 277 277 277 279 282 284 285 286 284 281 278 277 276 277 276 276 276 278 280 283 282 282 281 280 278 279 282 284 286 287 287 287 286 286 285 286 286 286 285 284
274 273 275 276 277 278 279 282 284 285 285 284 281 279 279 277 276 275 275 275 275 277 280 280 281 281 281 279 278 280 281 284 285 284 284 284 285 286 287 286 285 284 283
276 275 273 275 276 279 280 282 282 282 282 281 281 281 280 281 277 275 274 274 275 276 278 279 280 281 282 280 280 281 282 283 285 284 283 283 284 285 285 284 284 282 282
276 277 277 276 277 280 281 282 282 281 281 280 281 281 280 280 280 277 275 274 276 277 278 280 281 280 280 279 280 281 282 282 284 283 283 283 282 283 284 284 284 283 282
278 279 279 278 277 280 281 281 282 281 281 281 281 280 280 279 280 278 276 275 275 277 278 279 280 281 279 279 280 281 281 282 282 281 282 282 281 281 283 284 283 283 284
279 280 283 282 281 282 283 282 282 283 283 282 281 280 279 279 278 278 276 276 276 276 278 278 278 280 280 280 279 280 280 280 281 280 280 280 279 280 280 281 281 281 282
282 282 283 284 285 284 283 283 283 283 283 282 281 281 281 280 279 278 278 277 279 278 278 278 279 281 281 281 281 281 281 281 280 280 279 280 280 279 279 279 279 279 280
280 282 284 286 286 286 286 285 285 285 284 282 281 282 281 281 280 279 278 278 279 280 279 278 279 280 281 281 281 281 281 281 281 281 280 280 279 279 279 278 277 278 278
281 284 284 285 287 288 288 286 286 287 286 284 283 283 281 281 281 280 279 278 278 278 280 280 280 281 281 282 281 281 282 281 281 281 281 280 280 279 279 279 278 278 278
Height
5861 5861 5861 5860 5859 5860 5860 5860 5860 5860 5861 5861 5861 5861 5861 5861 5861 5861 5860 5860 5860 5860 5860 5859 5859 5858 5858 5857 5857 5856 5856 5856 5856 5855 5855 5855 5855 5855 5855 5855 5855 5856 5856
5859 5859 5859 5859 5858 5858 5858 5858 5859 5859 5859 5859 5859 5859 5859 5859 5859 5858 5858 5858 5858 5858 5857 5857 5856 5855 5855 5854 5854 5853 5853 5853 5852 5852 5851 5851 5851 5851 5851 5851 5851 5851 5852
5857 5858 5858 5858 5857 5857 5857 5857 5857 5857 5857 5857 5857 5857 5857 5857 5857 5856 5856 5856 5855 5855 5855 5854 5853 5853 5852 5851 5850 5850 5849 5849 5849 5848 5848 5847 5846 5846 5846 5846 5847 5847 5848
5856 5856 5856 5856 5856 5856 5856 5855 5855 5855 5855 5855 5855 5855 5855 5855 5855 5854 5854 5853 5853 5853 5852 5851 5851 5850 5849 5848 5847 5847 5846 5846 5845 5845 5844 5843 5842 5841 5841 5841 5842 5843 5844
5855 5855 5855 5855 5855 5854 5854 5854 5854 5854 5853 5853 5853 5853 5853 5853 5852 5852 5852 5851 5850 5850 5849 5849 5848 5848 5846 5845 5844 5844 5843 5843 5842 5841 5840 5840 5838 5836 5835 5835 5837 5838 5840
5854 5854 5854 5854 5853 5853 5853 5853 5852 5852 5852 5852 5851 5851 5851 5851 5850 5850 5850 5849 5848 5848 5847 5847 5846 5845 5844 5843 5842 5841 5840 5840 5839 5838 5837 5836 5835 5832 5830 5831 5833 5834 5836
5852 5852 5852 5852 5852 5852 5851 5851 5851 5851 5850 5850 5850 5849 5849 5849 5848 5848 5847 5847 5846 5846 5845 5844 5843 5842 5841 5840 5839 5839 5838 5837 5836 5835 5834 5833 5832 5830 5828 5829 5830 5831 5832
5851 5851 5851 5850 5850 5850 5850 5850 5849 5849 5849 5848 5848 5848 5847 5847 5847 5846 5846 5845 5844 5843 5843 5842 5841 5840 5839 5838 5837 5836 5835 5834 5833 5832 5831 5830 5829 5828 5827 5827 5828 5828 5829
5850 5849 5849 5849 5848 5848 5848 5848 5848 5847 5847 5847 5846 5846 5845 5845 5844 5844 5844 5843 5842 5841 5840 5839 5839 5838 5837 5836 5835 5834 5833 5832 5830 5829 5827 5827 5826 5825 5825 5825 5825 5825 5825
5848 5848 5847 5847 5846 5846 5846 5846 5846 5845 5845 5844 5844 5844 5843 5843 5843 5842 5842 5841 5840 5839 5839 5838 5837 5836 5835 5834 5833 5832 5831 5829 5828 5826 5824 5822 5822 5822 5822 5822 5822 5822 5822
5846 5846 5845 5845 5844 5844 5844 5844 5844 5843 5843 5843 5842 5842 5841 5841 5840 5840 5839 5839 5838 5837 5837 5836 5835 5834 5833 5832 5831 5830 5829 5827 5826 5824 5822 5820 5819 5819 5820 5820 5819 5819 5818
5844 5844 5843 5843 5842 5842 5842 5842 5841 5841 5841 5840 5840 5840 5839 5839 5838 5838 5837 5837 5836 5835 5834 5833 5833 5832 5831 5829 5828 5827 5826 5825 5823 5822 5820 5819 5818 5818 5818 5817 5817 5816 5815
5842 5842 5841 5840 5840 5840 5839 5839 5838 5838 5838 5838 5837 5837 5836 5836 5836 5835 5835 5834 5834 5833 5832 5831 5830 5829 5828 5827 5826 5825 5823 5822 5821 5820 5818 5818 5817 5816 5815 5815 5814 5813 5812
5839 5839 5838 5838 5837 5837 5836 5836 5835 5835 5835 5834 5834 5834 5833 5833 5833 5832 5832 5831 5831 5830 5829 5828 5827 5826 5825 5824 5823 5822 5821 5819 5818 5817 5816 5815 5814 5813 5813 5812 5811 5810 5809
5836 5836 5835 5835 5834 5833 5833 5833 5832 5832 5831 5831 5830 5830 5830 5830 5829 5828 5828 5828 5828 5827 5826 5825 5824 5823 5822 5821 5820 5819 5817 5816 5815 5814 5813 5812 5811 5810 5809 5808 5807 5806 5805
5833 5832 5832 5831 5831 5830 5829 5829 5828 5828 5827 5827 5827 5826 5826 5826 5825 5825 5824 5824 5823 5823 5822 5822 5821 5820 5818 5818 5817 5815 5814 5813 5812 5811 5809 5808 5807 5806 5805 5804 5803 5802 5801
5829 5828 5828 5828 5827 5826 5826 5825 5825 5824 5823 5823 5822 5822 5822 5821 5821 5821 5820 5820 5819 5818 5818 5817 5816 5816 5815 5814 5813 5812 5810 5809 5808 5807 5805 5804 5803 5802 5801 5799 5798 5797 5796
5825 5824 5824 5823 5823 5822 5822 5821 5821 5820 5819 5818 5818 5817 5817 5816 5816 5816 5815 5815 5814 5814 5813 5812 5811 5811 5810 5809 5808 5807 5806 5804 5803 5802 5800 5799 5798 5796 5795 5794 5793 5792 5790
5820 5819 5819 5818 5818 5818 5817 5816 5816 5815 5814 5813 5813 5812 5811 5811 5811 5810 5810 5810 5809 5809 5808 5807 5806 5805 5805 5803 5802 5802 5800 5799 5797 5796 5795 5793 5792 5790 5789 5787 5786 5785 5784
5815 5814 5814 5814 5813 5813 5812 5811 5810 5809 5809 5808 5807 5807 5806 5805 5805 5804 5804 5804 5804 5803 5802 5802 5801 5800 5798 5797 5796 5795 5794 5792 5791 5789 5788 5786 5785 5783 5782 5780 5779 5778 5776
5810 5810 5809 5809 5808 5807 5806 5805 5804 5804 5803 5802 5802 5801 5800 5799 5799 5798 5798 5798 5797 5797 5796 5795 5794 5793 5792 5791 5789 5788 5787 5786 5784 5782 5780 5779 5777 5776 5774 5773 5771 5770 5769
5806 5805 5804 5803 5802 5802 5801 5800 5799 5798 5797 5796 5795 5795 5794 5793 5792 5791 5791 5791 5790 5790 5789 5788 5787 5786 5785 5783 5782 5780 5779 5778 5777 5775 5773 5771 5770 5768 5767 5766 5765 5763 5761
5801 5800 5799 5798 5797 5796 5795 5794 5792 5792 5791 5790 5789 5788 5787 5786 5785 5785 5784 5783 5783 5782 5782 5781 5780 5778 5777 5775 5774 5772 5771 5769 5768 5767 5765 5764 5763 5761 5760 5759 5757 5756 5754
5795 5795 5794 5792 5791 5790 5789 5787 5786 5785 5784 5783 5782 5781 5780 5779 5778 5777 5776 5776 5775 5774 5773 5772 5771 5770 5768 5767 5765 5764 5762 5761 5760 5759 5757 5756 5755 5754 5752 5751 5750 5748 5747
5790 5789 5788 5787 5786 5784 5782 5781 5780 5779 5777 5776 5775 5774 5773 5772 5771 5770 5769 5768 5767 5766 5765 5763 5762 5761 5759 5758 5756 5755 5754 5752 5751 5750 5749 5747 5746 5745 5744 5743 5741 5740 5739
5785 5784 5782 5781 5780 5778 5776 5775 5773 5772 5770 5769 5768 5766 5765 5764 5763 5762 5761 5760 5759 5758 5757 5755 5754 5753 5751 5749 5748 5746 5745 5744 5743 5742 5740 5739 5737 5736 5736 5735 5733 5732 5730